Location: ?
(35.4554°N, 139.3092°E)
Time: 22:08:10
(UTC+00:00)

IUS-18 SRM-1 - Pass Details

Date: 21 April 2021
Orbit: 290 x 20551 km, 27.9° (Epoch: 10 May)

Event Time Altitude Azimuth Distance (km) Brightness Sun altitude
Exits shadow 18:10:02 25° 163° (SSE) 1,222 3.9 -21.5°
Maximum altitude 18:10:28 26° 152° (SSE) 1,287 4.1 -21.4°
Drops below altitude 10° 18:16:35 10° 98° (E) 3,763 7.2 -20.4°
Sets 18:23:47 0° 89° (E) 6,911 8.9 -19.2°
